[[{"header":{"parameterUnit":"m.s-1","parameterCategory":1,"la1":30.2991,"la2":30.254,"lo1":-89.0895,"lo2":-89.0444,"dy":0.0017,"dx":0.0017,"nx":28,"ny":28,"refTime":"2025-07-19T09:00:00:Z","depth":0,"parameterNumber":2,"parameterNumberName":"U-component_of_WINDS"},"data":[0,0,0,0,0,0,0,0,0,0,0,0,0,0,0,0,0,0,0,0,0,0,0,0,0,0,0,0,0,0,0,0,0,0,0,0,0,0,0,0,0,0,0,0,0,0,0,0,0,0,0,0,0,0,0,0,0,0,0.5178,0.5179,0,0.5214,0.5214,0.5215,0.5201,0.52,0.52,0.5199,0.5236,0.5237,0.5239,0,0,0,0,0,0,0,0,0,0,0,0,0,0.5097,0.5099,0.5178,0.5179,0.5179,0.5214,0.5214,0.5215,0.5201,0.52,0.5199,0.5198,0.5235,0.5237,0.5239,0,0,0,0,0,0,0,0,0,0,0,0,0,0.5133,0.5099,0.5178,0.5177,0.5177,0.5214,0.5214,0.5215,0.5202,0.52,0.5199,0.5198,0.5235,0.5237,0.524,0.528,0,0,0.5248,0.5249,0,0,0,0,0,0,0,0,0.5131,0.5136,0.5176,0.5177,0.5177,0.5202,0.5199,0.5237,0.5202,0.5192,0.5199,0.5197,0.5226,0.5229,0.5238,0.5282,0.5284,0.5248,0.5249,0.5251,0.5251,0,0,0,0,0,0,0,0.5128,0.5134,0.5192,0.5177,0.5177,0.5174,0.5177,0.5206,0.5215,0.5193,0.5192,0.5196,0.5225,0.5236,0.5239,0.5284,0.5248,0.525,0.5252,0.5253,0.5361,0.5362,0,0,0,0,0,0,0.5126,0.5132,0.5191,0.5193,0.515,0.5176,0.518,0.5195,0.5215,0.5217,0.5197,0.5196,0.5232,0.5236,0.524,0.5288,0.5251,0.5253,0.5255,0.5359,0.5361,0.5362,0,0,0,0,0,0,0.5124,0.5131,0.519,0.5162,0.517,0.5179,0.5196,0.5196,0.5207,0.5218,0.522,0.5206,0.5231,0.5236,0.527,0.5289,0.5254,0.5257,0.5358,0.536,0.5362,0.5384,0,0,0,0,0,0,0.5122,0.5131,0.5147,0.5163,0.5171,0.5219,0.5197,0.5198,0.5211,0.5209,0.5227,0.5229,0.523,0.5266,0.5272,0.5292,0.5259,0.5356,0.5359,0.5361,0.5381,0.5386,0.539,0,0,0,0,0,0.5119,0.5152,0.5147,0.5155,0.5191,0.522,0.5225,0.5226,0.5213,0.5228,0.5235,0.5228,0.5286,0.527,0.5277,0.5297,0.5355,0.5358,0.5361,0.5379,0.5385,0.539,0,0,0,0,0,0,0.5138,0.5154,0.5149,0.5189,0.5203,0.5218,0.5238,0.5233,0.5251,0.5249,0.5249,0.5254,0.5288,0.5296,0.5278,0.5336,0.5318,0.5323,0.533,0.5335,0.534,0.5337,0.5261,0,0,0,0,0,0.5147,0.5169,0.5182,0.5215,0.5223,0.5229,0.5242,0.5241,0.5256,0.5263,0.5272,0.5287,0.5308,0.5322,0.5343,0.5382,0.5385,0.5399,0.5404,0.5408,0.5411,0.5431,0.5437,0.5372,0.5372,0.5372,0,0,0.5165,0.5177,0.5191,0.5219,0.5231,0.5253,0.5234,0.526,0.5276,0.5266,0.5298,0.5306,0.5322,0.5358,0.5375,0.5366,0.543,0.5411,0.5414,0.5416,0.5435,0.5441,0.5446,0.5374,0.5374,0.5373,0,0,0.521,0.5222,0.525,0.5261,0.5278,0.5281,0.5288,0.5303,0.5308,0.5339,0.5332,0.5351,0.5389,0.54,0.5411,0.5458,0.5451,0.5464,0.5488,0.5507,0.5512,0.5516,0.5532,0.5538,0.5468,0.5468,0.5468,0,0.5231,0.5265,0.5265,0.529,0.5302,0.5294,0.5321,0.5332,0.5355,0.5363,0.5353,0.5398,0.5409,0.5446,0.5458,0.5467,0.5474,0.5462,0.5511,0.5516,0.552,0.5535,0.5541,0.5469,0.5469,0.5469,0.5469,0,0.5289,0.5312,0.5333,0.5354,0.5369,0.5395,0.5398,0.5413,0.541,0.5415,0.5446,0.5459,0.548,0.5489,0.5488,0.5526,0.552,0.5511,0.5493,0.5528,0.5541,0.5547,0.5472,0.5471,0.5471,0.547,0,0,0.5348,0.5367,0.5375,0.5383,0.54,0.5418,0.5444,0.5465,0.5476,0.5492,0.5512,0.5543,0.5533,0.5546,0.5545,0.5562,0.5597,0.555,0.555,0.5557,0.5638,0.5645,0.5651,0.5592,0.5593,0.5594,0.5636,0,0.5393,0.5438,0.5437,0.5478,0.5499,0.549,0.5512,0.5525,0.5529,0.5547,0.5552,0.5573,0.556,0.5567,0.5583,0.5589,0.5613,0.5586,0.5611,0.5612,0.5606,0.5659,0.5666,0.5706,0.5642,0.5643,0.5644,0,0.5452,0.5469,0.5511,0.5523,0.5532,0.5552,0.557,0.5587,0.5601,0.5603,0.5615,0.5611,0.5636,0.5617,0.5651,0.5633,0.5643,0.5647,0.5649,0.5651,0.5629,0.5661,0.5718,0.5724,0.5652,0.5652,0.5651,0,0.5489,0.5522,0.5551,0.5559,0.5575,0.5588,0.5595,0.5607,0.5619,0.5635,0.5642,0.5661,0.5671,0.5685,0.5686,0.5672,0.5719,0.5701,0.5721,0.5721,0.5731,0.5731,0.579,0.5739,0.5739,0.5739,0.5739,0,0.554,0.5566,0.5568,0.5586,0.5615,0.5614,0.5642,0.5648,0.5658,0.5676,0.567,0.5688,0.5688,0.5706,0.5707,0.5733,0.5738,0.574,0.574,0.574,0.574,0.5747,0.5744,0.574,0.574,0.574,0.5739,0,0.5586,0.5589,0.562,0.5631,0.5635,0.5655,0.5664,0.5681,0.5684,0.5707,0.5713,0.5718,0.5738,0.574,0.5764,0.5765,0.5797,0.5794,0.5792,0.5791,0.5811,0.5808,0.5876,0.5884,0.5829,0.5829,0.583,0,0.5618,0.5637,0.565,0.5662,0.5669,0.5688,0.57,0.5699,0.5712,0.5727,0.5742,0.5761,0.5776,0.5809,0.5814,0.5832,0.5829,0.5851,0.5832,0.5831,0.5828,0.5827,0.5828,0.5855,0.5856,0.5856,0.5857,0,0.5673,0.5673,0.569,0.5707,0.572,0.5734,0.5747,0.5756,0.5757,0.5771,0.5791,0.5803,0.5826,0.5845,0.5862,0.5869,0.5862,0.5863,0.5868,0.5868,0.5866,0.5866,0.5801,0.5861,0.5861,0.586,0.586,0.586,0.5712,0.5729,0.574,0.5758,0.5767,0.5779,0.5794,0.5799,0.5816,0.5834,0.5833,0.5855,0.5866,0.5888,0.5896,0.5912,0.5905,0.5913,0.5915,0.5917,0.5918,0.5863,0.5915,0.5915,0.5915,0.5915,0.5915,0,0.5766,0.5772,0.5789,0.5807,0.5821,0.5813,0.5826,0.5839,0.5858,0.5869,0.5883,0.5905,0.5923,0.593,0.5947,0.5959,0.5956,0.5963,0.5962,0.5963,0.5924,0.5917,0.5965,0.5965,0.5965,0.5965,0.5965,0.5965,0.5796,0.5823,0.5823,0.5854,0.586,0.5881,0.5889,0.5899,0.5907,0.5932,0.5947,0.5951,0.5959,0.5977,0.5992,0.5994,0.6,0.6008,0.6008,0.5971,0.5966,0.5961,0.5955,0.6009,0.6009,0.6045,0.6046,0.6046]},{"header":{"parameterUnit":"m.s-1","parameterCategory":1,"la1":30.2991,"la2":30.254,"lo1":-89.0895,"lo2":-89.0444,"dy":0.0017,"dx":0.0017,"nx":28,"ny":28,"refTime":"2025-07-19T09:00:00:Z","depth":0,"parameterNumber":3,"parameterNumberName":"V-component_of_WINDS"},"data":[0,0,0,0,0,0,0,0,0,0,0,0,0,0,0,0,0,0,0,0,0,0,0,0,0,0,0,0,0,0,0,0,0,0,0,0,0,0,0,0,0,0,0,0,0,0,0,0,0,0,0,0,0,0,0,0,0,0,5.3179,5.3179,0,5.3196,5.3196,5.3196,5.3122,5.312,5.3117,5.3115,5.313,5.3133,5.3135,0,0,0,0,0,0,0,0,0,0,0,0,0,5.3078,5.308,5.3179,5.3179,5.3179,5.3196,5.3196,5.3196,5.3122,5.312,5.3117,5.3114,5.313,5.3132,5.3135,0,0,0,0,0,0,0,0,0,0,0,0,0,5.3111,5.3081,5.3179,5.3144,5.3141,5.3196,5.3196,5.3196,5.3123,5.3119,5.3116,5.3113,5.3129,5.3132,5.3136,5.3223,0,0,5.3147,5.3148,0,0,0,0,0,0,0,0,5.3109,5.3115,5.3149,5.3147,5.3144,5.3153,5.3166,5.3205,5.3124,5.313,5.3115,5.3112,5.3141,5.3143,5.3153,5.3224,5.3225,5.3147,5.3149,5.3151,5.3152,0,0,0,0,0,0,0,5.3107,5.3114,5.3185,5.315,5.3146,5.3127,5.3128,5.3173,5.3153,5.3129,5.3124,5.3127,5.3138,5.315,5.3153,5.3225,5.3147,5.315,5.3153,5.3154,5.3366,5.337,0,0,0,0,0,0,5.311,5.3112,5.3185,5.3186,5.3118,5.3131,5.3132,5.3153,5.3152,5.3149,5.313,5.3123,5.3145,5.3149,5.3153,5.3254,5.3151,5.3154,5.3156,5.3363,5.3367,5.3371,0,0,0,0,0,0,5.3108,5.3117,5.3184,5.3148,5.3155,5.3136,5.3161,5.3156,5.3167,5.3153,5.3149,5.3145,5.3143,5.3148,5.3206,5.3253,5.3156,5.3159,5.3359,5.3364,5.3369,5.3457,0,0,0,0,0,0,5.3106,5.3117,5.3151,5.3149,5.3157,5.3238,5.3164,5.3158,5.3174,5.3166,5.3167,5.3163,5.3141,5.3201,5.321,5.3257,5.3162,5.3354,5.3361,5.3367,5.345,5.3465,5.3478,0,0,0,0,0,5.3102,5.3175,5.3153,5.3162,5.3199,5.3241,5.3245,5.3218,5.3178,5.3211,5.3202,5.3163,5.3248,5.3208,5.3217,5.3266,5.3351,5.3359,5.3367,5.3444,5.3462,5.3477,0,0,0,0,0,0,5.3182,5.3174,5.315,5.3224,5.3234,5.3228,5.3269,5.3239,5.3259,5.3251,5.3216,5.3217,5.328,5.3279,5.3235,5.3349,5.3292,5.3302,5.3348,5.3365,5.3378,5.3376,5.3165,0,0,0,0,0,5.3209,5.3244,5.3235,5.3302,5.3308,5.3288,5.3305,5.3284,5.3292,5.3295,5.329,5.3299,5.3327,5.3346,5.3371,5.345,5.3448,5.3488,5.3502,5.3513,5.3522,5.3561,5.3578,5.3396,5.3396,5.3396,0,0,5.3263,5.3263,5.3288,5.3318,5.3323,5.3359,5.3292,5.3333,5.3359,5.3301,5.3355,5.3352,5.3359,5.3428,5.3458,5.3429,5.3572,5.3523,5.3532,5.3535,5.3571,5.3588,5.3604,5.3402,5.3401,5.34,0,0,5.3381,5.3386,5.3441,5.3447,5.3456,5.3442,5.3455,5.3454,5.345,5.3504,5.3461,5.3491,5.3541,5.3547,5.3557,5.3676,5.3641,5.3686,5.3757,5.3796,5.381,5.3823,5.3863,5.3879,5.3694,5.3695,5.3695,0,5.3448,5.3501,5.3473,5.3517,5.353,5.348,5.3535,5.3542,5.3558,5.3568,5.3536,5.3596,5.3598,5.3666,5.3695,5.3705,5.3718,5.3684,5.3811,5.3823,5.3834,5.3872,5.3888,5.37,5.3699,5.3699,5.3698,0,5.3581,5.3619,5.3663,5.368,5.3698,5.3748,5.3725,5.3747,5.3724,5.3714,5.3768,5.3769,5.3792,5.3807,5.3785,5.3872,5.3853,5.3817,5.3758,5.3857,5.3892,5.3907,5.3707,5.3705,5.3704,5.3703,0,0,5.3749,5.375,5.3766,5.3772,5.3778,5.3806,5.3852,5.3876,5.3894,5.3908,5.3944,5.3987,5.3953,5.3964,5.3942,5.3977,5.4069,5.3935,5.3935,5.3958,5.4163,5.4189,5.4207,5.4047,5.4049,5.4052,5.4161,0,5.3863,5.3942,5.3918,5.3997,5.4031,5.3984,5.4024,5.4031,5.4022,5.4049,5.4039,5.4069,5.4022,5.4028,5.4061,5.4051,5.4109,5.4043,5.4079,5.408,5.4076,5.4225,5.4253,5.4357,5.4175,5.4178,5.4179,0,5.4006,5.4024,5.4108,5.4106,5.4119,5.4156,5.4175,5.4201,5.4208,5.4199,5.4211,5.4182,5.4226,5.4169,5.4228,5.4184,5.4197,5.4194,5.4197,5.4198,5.4134,5.4228,5.439,5.4405,5.4201,5.4199,5.4198,0,5.4117,5.4163,5.4218,5.4225,5.4226,5.4252,5.4253,5.4257,5.4272,5.4289,5.4298,5.432,5.4331,5.4348,5.4324,5.4285,5.4386,5.4328,5.4378,5.4379,5.44,5.4399,5.4564,5.4413,5.4412,5.4412,5.4412,0,5.4245,5.4297,5.4268,5.4302,5.4358,5.4329,5.4386,5.4381,5.4385,5.4416,5.4377,5.4407,5.4375,5.4402,5.4384,5.4435,5.4441,5.4434,5.4428,5.4436,5.4437,5.4443,5.4434,5.4416,5.4415,5.4414,5.4414,0,5.4378,5.4361,5.4417,5.4413,5.4413,5.4455,5.4451,5.4481,5.447,5.451,5.4517,5.4499,5.4529,5.4508,5.4537,5.4525,5.4591,5.4576,5.4589,5.4584,5.4635,5.463,5.4808,5.4829,5.4666,5.4668,5.4669,0,5.446,5.4499,5.4499,5.4517,5.4521,5.4551,5.4566,5.4539,5.4557,5.4567,5.4596,5.4622,5.4641,5.469,5.4679,5.4701,5.4685,5.4746,5.4688,5.4694,5.4683,5.468,5.4683,5.4757,5.4759,5.4761,5.4762,0,5.4606,5.4596,5.462,5.4641,5.4661,5.4676,5.4688,5.4705,5.4677,5.4698,5.4728,5.4743,5.4773,5.4799,5.4816,5.4816,5.4784,5.4781,5.4793,5.4801,5.4805,5.4801,5.4618,5.4776,5.4775,5.4774,5.4773,5.4772,5.4715,5.4746,5.4751,5.4779,5.4785,5.4797,5.4825,5.4817,5.4841,5.4864,5.4846,5.4881,5.4885,5.4906,5.491,5.4936,5.4911,5.493,5.4934,5.4939,5.4945,5.4803,5.494,5.4939,5.4939,5.4939,5.4938,0,5.4857,5.4858,5.4884,5.4901,5.4923,5.4892,5.4903,5.4923,5.4954,5.4962,5.4981,5.5015,5.504,5.5031,5.5053,5.5075,5.5061,5.5082,5.5078,5.5079,5.4967,5.4953,5.5093,5.5093,5.5093,5.5093,5.5093,5.5093,5.4933,5.4985,5.4975,5.5028,5.5028,5.5063,5.5071,5.5082,5.5087,5.5126,5.5147,5.5141,5.5142,5.5163,5.5184,5.5181,5.5189,5.5215,5.5206,5.5102,5.5087,5.5072,5.5059,5.5218,5.5218,5.5315,5.5316,5.5317]}]]